AAL3521 KEYW-KJAX

Flight info

Callsign AAL3521
Flight time 1h 9m
Altitude 37000
Route CARNU RVERO ORL POGIE2
Aircraft A319/M-SDE3FGHIRWY/LB1

Departure

Time 2026-05-04 02:22
Airport Key West International Airport (KEYW)

Arrival

Time 2026-05-04 03:31
Airport Jacksonville International Airport (KJAX)
Time Latitude Longitude Altitude Speed Heading
2026-05-04 01:52 24.55472 -81.75558 20 ft 0 kts 229°
2026-05-04 02:13 24.55484 -81.75539 19 ft 4 kts 269°
2026-05-04 02:13 24.55475 -81.75521 23 ft 4 kts 345°
2026-05-04 02:13 24.55463 -81.75519 20 ft 1 kts 359°
2026-05-04 02:14 24.55461 -81.75519 20 ft 0 kts 359°
2026-05-04 02:17 24.55462 -81.75519 20 ft 0 kts 359°
2026-05-04 02:18 24.55471 -81.75519 23 ft 3 kts 360°
2026-05-04 02:18 24.55500 -81.75519 22 ft 5 kts
2026-05-04 02:18 24.55529 -81.75538 20 ft 6 kts 293°
2026-05-04 02:18 24.55530 -81.75604 20 ft 11 kts 269°
2026-05-04 02:19 24.55529 -81.75698 20 ft 13 kts 270°
2026-05-04 02:19 24.55528 -81.75805 20 ft 15 kts 269°
2026-05-04 02:19 24.55527 -81.75936 16 ft 19 kts 270°
2026-05-04 02:19 24.55525 -81.76096 13 ft 22 kts 269°
2026-05-04 02:20 24.55523 -81.76258 13 ft 21 kts 269°
2026-05-04 02:20 24.55522 -81.76424 12 ft 23 kts 269°
2026-05-04 02:20 24.55520 -81.76578 12 ft 16 kts 270°
2026-05-04 02:20 24.55528 -81.76635 15 ft 0 kts 299°
2026-05-04 02:21 24.55529 -81.76638 15 ft 2 kts 299°
2026-05-04 02:21 24.55565 -81.76657 14 ft 11 kts 355°
2026-05-04 02:21 24.55607 -81.76616 14 ft 0 kts 89°
2026-05-04 02:22 24.55607 -81.76614 14 ft 5 kts 89°
2026-05-04 02:22 24.55611 -81.76227 12 ft 96 kts 89°
2026-05-04 02:22 24.55618 -81.75221 146 ft 153 kts 88°
2026-05-04 02:22 24.55601 -81.74044 921 ft 155 kts 87°
2026-05-04 02:23 24.55613 -81.72829 1710 ft 161 kts 88°
2026-05-04 02:23 24.55908 -81.71612 2184 ft 175 kts 51°
2026-05-04 02:23 24.56878 -81.70746 2576 ft 190 kts 28°
2026-05-04 02:23 24.58082 -81.69957 2909 ft 214 kts 27°
2026-05-04 02:24 24.59439 -81.69075 3300 ft 238 kts 28°
2026-05-04 02:24 24.60938 -81.68095 3759 ft 263 kts 29°
2026-05-04 02:24 24.62560 -81.67024 4472 ft 277 kts 28°
2026-05-04 02:24 24.64236 -81.65911 5366 ft 285 kts 29°
2026-05-04 02:25 24.65944 -81.64768 6282 ft 290 kts 30°
2026-05-04 02:25 24.67685 -81.63600 7170 ft 295 kts 29°
2026-05-04 02:25 24.69444 -81.62418 8037 ft 301 kts 30°
2026-05-04 02:25 24.71246 -81.61207 8885 ft 305 kts 28°
2026-05-04 02:26 24.72453 -81.60398 9485 ft 308 kts 28°
2026-05-04 02:26 24.74303 -81.59159 10220 ft 317 kts 28°
2026-05-04 02:26 24.76261 -81.57855 10526 ft 341 kts 28°
2026-05-04 02:26 24.78326 -81.56477 11137 ft 351 kts 28°
2026-05-04 02:27 24.80430 -81.55068 11893 ft 357 kts 28°
2026-05-04 02:27 24.82564 -81.53635 12647 ft 362 kts 28°
2026-05-04 02:27 24.84728 -81.52179 13391 ft 367 kts 28°
2026-05-04 02:27 24.86925 -81.50699 14090 ft 372 kts 28°
2026-05-04 02:28 24.89147 -81.49204 14744 ft 377 kts 28°
2026-05-04 02:28 24.91402 -81.47690 15396 ft 381 kts 28°
2026-05-04 02:28 24.93683 -81.46158 16051 ft 386 kts 27°
2026-05-04 02:28 24.95986 -81.44610 16691 ft 390 kts 27°
2026-05-04 02:29 24.98314 -81.43042 17330 ft 394 kts 27°
2026-05-04 02:29 25.00665 -81.41457 17966 ft 399 kts 27°
2026-05-04 02:29 25.03048 -81.39850 18562 ft 403 kts 27°
2026-05-04 02:29 25.05449 -81.38231 19115 ft 407 kts 27°
2026-05-04 02:30 25.07874 -81.36596 19696 ft 410 kts 27°
2026-05-04 02:30 25.10351 -81.35002 20203 ft 413 kts 21°
2026-05-04 02:30 25.13016 -81.33844 20740 ft 411 kts 11°
2026-05-04 02:30 25.15803 -81.33217 21296 ft 407 kts
2026-05-04 02:31 25.18615 -81.33127 21859 ft 403 kts 350°
2026-05-04 02:31 25.21397 -81.33434 22418 ft 404 kts 347°
2026-05-04 02:31 25.24203 -81.33773 22987 ft 407 kts 347°
2026-05-04 02:31 25.27032 -81.34116 23549 ft 410 kts 347°
2026-05-04 02:32 25.29881 -81.34459 24021 ft 414 kts 347°
2026-05-04 02:32 25.32750 -81.34802 24481 ft 416 kts 347°
2026-05-04 02:32 25.35638 -81.35144 24946 ft 419 kts 347°
2026-05-04 02:32 25.38512 -81.35484 25383 ft 422 kts 347°
2026-05-04 02:33 25.41481 -81.35837 25823 ft 426 kts 346°
2026-05-04 02:33 25.44439 -81.36190 26253 ft 429 kts 346°
2026-05-04 02:33 25.47414 -81.36545 26699 ft 431 kts 346°
2026-05-04 02:33 25.50371 -81.36899 27133 ft 434 kts 345°
2026-05-04 02:34 25.53380 -81.37260 27572 ft 436 kts 345°
2026-05-04 02:34 25.56402 -81.37621 28019 ft 439 kts 345°
2026-05-04 02:34 25.59447 -81.37982 28458 ft 441 kts 345°
2026-05-04 02:34 25.62508 -81.38343 28886 ft 444 kts 345°
2026-05-04 02:35 25.65591 -81.38706 29319 ft 446 kts 345°
2026-05-04 02:35 25.68686 -81.39070 29737 ft 449 kts 345°
2026-05-04 02:35 25.71797 -81.39438 30221 ft 451 kts 344°
2026-05-04 02:35 25.74924 -81.39809 30578 ft 453 kts 344°
2026-05-04 02:36 25.78068 -81.40186 30896 ft 456 kts 344°
2026-05-04 02:36 25.81236 -81.40566 31082 ft 459 kts 344°
2026-05-04 02:36 25.87568 -81.41325 31052 ft 454 kts 344°
2026-05-04 02:37 25.90652 -81.41686 31058 ft 438 kts 344°
2026-05-04 02:37 25.93631 -81.42029 31061 ft 426 kts 343°
2026-05-04 02:37 25.99466 -81.42724 31060 ft 419 kts 343°
2026-05-04 02:38 26.05253 -81.43431 31057 ft 418 kts 343°
2026-05-04 02:38 26.11366 -81.44172 31059 ft 418 kts 343°
2026-05-04 02:39 26.16812 -81.44833 31062 ft 418 kts 343°
2026-05-04 02:39 26.22590 -81.45524 31060 ft 417 kts 343°
2026-05-04 02:40 26.28328 -81.46214 31054 ft 417 kts 343°
2026-05-04 02:40 26.34095 -81.46915 31079 ft 417 kts 342°
2026-05-04 02:41 26.39868 -81.47610 31069 ft 417 kts 342°
2026-05-04 02:41 26.45647 -81.48307 31062 ft 417 kts 342°
2026-05-04 02:42 26.51415 -81.48996 31054 ft 417 kts 342°
2026-05-04 02:42 26.57181 -81.49695 31052 ft 417 kts 342°
2026-05-04 02:43 26.62943 -81.50399 31098 ft 417 kts 342°
2026-05-04 02:43 26.68719 -81.51099 31084 ft 417 kts 342°
2026-05-04 02:44 26.74494 -81.51790 31077 ft 417 kts 342°
2026-05-04 02:44 26.80269 -81.52489 31070 ft 417 kts 342°
2026-05-04 02:45 26.85966 -81.53183 31072 ft 420 kts 342°
2026-05-04 02:45 26.88919 -81.53554 31073 ft 434 kts 342°
2026-05-04 02:45 26.91955 -81.53940 31124 ft 443 kts 342°
2026-05-04 02:46 26.98132 -81.54694 31074 ft 449 kts 343°
2026-05-04 02:46 27.04308 -81.55429 31073 ft 449 kts 343°
2026-05-04 02:47 27.10521 -81.56175 31079 ft 449 kts 343°
2026-05-04 02:47 27.16733 -81.56934 31078 ft 449 kts 343°
2026-05-04 02:48 27.19803 -81.57304 31072 ft 436 kts 342°
2026-05-04 02:48 27.22774 -81.57654 31119 ft 425 kts 342°
2026-05-04 02:48 27.28595 -81.58365 31081 ft 419 kts 342°
2026-05-04 02:49 27.34383 -81.59098 31084 ft 418 kts 342°
2026-05-04 02:49 27.40196 -81.59720 31084 ft 427 kts 349°
2026-05-04 02:50 27.43210 -81.59416 31083 ft 443 kts
2026-05-04 02:50 27.46234 -81.58713 31085 ft 445 kts
2026-05-04 02:50 27.52305 -81.57290 31082 ft 445 kts
2026-05-04 02:51 27.57997 -81.55975 31089 ft 444 kts
2026-05-04 02:51 27.64423 -81.54494 31086 ft 444 kts
2026-05-04 02:52 27.70583 -81.53066 31083 ft 444 kts
2026-05-04 02:52 27.76523 -81.51685 31081 ft 444 kts
2026-05-04 02:53 27.82568 -81.50282 31127 ft 444 kts
2026-05-04 02:53 27.88612 -81.48879 31113 ft 443 kts
2026-05-04 02:54 27.94650 -81.47472 31102 ft 443 kts
2026-05-04 02:54 28.00684 -81.46060 31092 ft 443 kts
2026-05-04 02:55 28.09730 -81.43953 31095 ft 442 kts
2026-05-04 02:56 28.15763 -81.42543 31155 ft 442 kts
2026-05-04 02:56 28.21851 -81.41137 31128 ft 453 kts
2026-05-04 02:57 28.27944 -81.39712 31070 ft 444 kts
2026-05-04 02:57 28.33981 -81.38282 31024 ft 443 kts
2026-05-04 02:58 28.40009 -81.36861 31023 ft 442 kts
2026-05-04 02:58 28.46036 -81.35444 30976 ft 442 kts
2026-05-04 02:59 28.52062 -81.34032 30937 ft 440 kts 360°
2026-05-04 02:59 28.55062 -81.33681 30911 ft 427 kts 349°
2026-05-04 02:59 28.57973 -81.33859 31070 ft 417 kts 343°
2026-05-04 02:59 28.60871 -81.34156 30952 ft 417 kts 343°
2026-05-04 03:00 28.63744 -81.34440 30717 ft 413 kts 343°
2026-05-04 03:00 28.66598 -81.34718 30474 ft 410 kts 344°
2026-05-04 03:00 28.69421 -81.34992 30293 ft 408 kts 344°
2026-05-04 03:00 28.72195 -81.35266 29954 ft 405 kts 344°
2026-05-04 03:01 28.74993 -81.35548 29522 ft 402 kts 344°
2026-05-04 03:01 28.77766 -81.35830 29088 ft 401 kts 344°
2026-05-04 03:01 28.80238 -81.36078 28712 ft 399 kts 344°
2026-05-04 03:01 28.82962 -81.36349 28295 ft 397 kts 344°
2026-05-04 03:02 28.85707 -81.36624 27875 ft 395 kts 344°
2026-05-04 03:02 28.88398 -81.36893 27455 ft 394 kts 344°
2026-05-04 03:02 28.90792 -81.37131 27083 ft 393 kts 345°
2026-05-04 03:02 28.93265 -81.37378 26678 ft 392 kts 345°
2026-05-04 03:03 28.95647 -81.37616 26292 ft 391 kts 345°
2026-05-04 03:03 28.98344 -81.37886 25862 ft 391 kts 345°
2026-05-04 03:03 29.00659 -81.38118 25444 ft 391 kts 345°
2026-05-04 03:03 29.03321 -81.38384 24984 ft 391 kts 345°
2026-05-04 03:04 29.05933 -81.38647 24514 ft 392 kts 345°
2026-05-04 03:04 29.08292 -81.38883 24086 ft 393 kts 345°
2026-05-04 03:04 29.10824 -81.39135 23621 ft 394 kts 346°
2026-05-04 03:04 29.13182 -81.39373 23150 ft 393 kts 346°
2026-05-04 03:05 29.15471 -81.39603 22746 ft 392 kts 346°
2026-05-04 03:05 29.17930 -81.39847 22309 ft 391 kts 346°
2026-05-04 03:05 29.20615 -81.40115 21839 ft 389 kts 346°
2026-05-04 03:05 29.23313 -81.40385 21373 ft 388 kts 346°
2026-05-04 03:06 29.25975 -81.40651 20905 ft 387 kts 346°
2026-05-04 03:06 29.28647 -81.40918 20441 ft 383 kts 346°
2026-05-04 03:06 29.31281 -81.41179 19985 ft 377 kts 346°
2026-05-04 03:06 29.33487 -81.41400 19619 ft 371 kts 346°
2026-05-04 03:07 29.35804 -81.41635 19213 ft 371 kts 346°
2026-05-04 03:07 29.38381 -81.41900 18776 ft 371 kts 346°
2026-05-04 03:07 29.40936 -81.42159 18290 ft 367 kts 347°
2026-05-04 03:07 29.43477 -81.42413 17699 ft 362 kts 347°
2026-05-04 03:08 29.45954 -81.42654 17301 ft 355 kts 347°
2026-05-04 03:08 29.48381 -81.42894 16883 ft 354 kts 347°
2026-05-04 03:08 29.50826 -81.43139 16471 ft 351 kts 347°
2026-05-04 03:08 29.52460 -81.43303 16205 ft 347 kts 347°
2026-05-04 03:09 29.54842 -81.43545 15792 ft 341 kts 347°
2026-05-04 03:09 29.57153 -81.43927 15408 ft 328 kts 338°
2026-05-04 03:09 29.59214 -81.44887 15046 ft 313 kts 324°
2026-05-04 03:09 29.60936 -81.46336 14692 ft 304 kts 311°
2026-05-04 03:10 29.62422 -81.48055 14342 ft 302 kts 310°
2026-05-04 03:10 29.63896 -81.49761 13993 ft 301 kts 310°
2026-05-04 03:10 29.65369 -81.51464 13620 ft 299 kts 310°
2026-05-04 03:10 29.66836 -81.53154 13262 ft 297 kts 311°
2026-05-04 03:11 29.68292 -81.54828 12919 ft 295 kts 311°
2026-05-04 03:11 29.69724 -81.56476 12629 ft 288 kts 311°
2026-05-04 03:11 29.71129 -81.58100 12309 ft 284 kts 311°
2026-05-04 03:11 29.72518 -81.59707 12000 ft 283 kts 311°
2026-05-04 03:12 29.73906 -81.61315 11726 ft 283 kts 311°
2026-05-04 03:12 29.75354 -81.62855 11432 ft 285 kts 321°
2026-05-04 03:12 29.77133 -81.63888 11132 ft 290 kts 339°
2026-05-04 03:12 29.79137 -81.64220 10834 ft 295 kts 358°
2026-05-04 03:13 29.81174 -81.63852 10533 ft 297 kts
2026-05-04 03:13 29.83198 -81.63350 10227 ft 296 kts
2026-05-04 03:13 29.85209 -81.62856 9918 ft 295 kts 10°
2026-05-04 03:13 29.87204 -81.62371 9596 ft 292 kts 10°
2026-05-04 03:14 29.89189 -81.61890 9296 ft 290 kts 10°
2026-05-04 03:14 29.91158 -81.61416 9001 ft 289 kts 10°
2026-05-04 03:14 29.93123 -81.60942 8700 ft 287 kts 10°
2026-05-04 03:14 29.95075 -81.60468 8406 ft 286 kts 10°
2026-05-04 03:15 29.97018 -81.59993 8118 ft 285 kts 11°
2026-05-04 03:15 29.98949 -81.59523 7826 ft 283 kts 11°
2026-05-04 03:15 30.00873 -81.59057 7539 ft 282 kts 11°
2026-05-04 03:15 30.02788 -81.58593 7249 ft 280 kts 11°
2026-05-04 03:16 30.04690 -81.58134 6965 ft 279 kts 11°
2026-05-04 03:16 30.06592 -81.57672 6684 ft 278 kts 11°
2026-05-04 03:16 30.08478 -81.57212 6384 ft 276 kts 12°
2026-05-04 03:16 30.10353 -81.56754 6093 ft 275 kts 11°
2026-05-04 03:17 30.12221 -81.56298 5809 ft 273 kts 11°
2026-05-04 03:17 30.14068 -81.55848 5508 ft 269 kts 11°
2026-05-04 03:17 30.15887 -81.55402 5237 ft 266 kts 11°
2026-05-04 03:17 30.17689 -81.54960 5026 ft 264 kts 12°
2026-05-04 03:18 30.19480 -81.54522 4980 ft 263 kts 12°
2026-05-04 03:18 30.21273 -81.54084 4983 ft 264 kts 11°
2026-05-04 03:18 30.23068 -81.53645 4982 ft 263 kts 11°
2026-05-04 03:18 30.24863 -81.53204 5010 ft 264 kts 12°
2026-05-04 03:19 30.26660 -81.52762 5011 ft 264 kts 12°
2026-05-04 03:19 30.28457 -81.52320 5010 ft 264 kts 12°
2026-05-04 03:19 30.30256 -81.51893 4948 ft 263 kts
2026-05-04 03:19 30.32044 -81.52085 4542 ft 260 kts 340°
2026-05-04 03:20 30.33523 -81.53261 4095 ft 262 kts 311°
2026-05-04 03:20 30.34323 -81.55142 3645 ft 264 kts 281°
2026-05-04 03:20 30.34251 -81.57251 3190 ft 265 kts 256°
2026-05-04 03:20 30.33775 -81.59303 2993 ft 265 kts 253°
2026-05-04 03:21 30.33261 -81.61357 2998 ft 268 kts 253°
2026-05-04 03:21 30.32738 -81.63426 3018 ft 268 kts 253°
2026-05-04 03:21 30.32214 -81.65496 3019 ft 268 kts 253°
2026-05-04 03:21 30.31683 -81.67557 3030 ft 266 kts 253°
2026-05-04 03:22 30.31152 -81.69604 3027 ft 266 kts 253°
2026-05-04 03:22 30.30619 -81.71649 3028 ft 266 kts 253°
2026-05-04 03:22 30.30085 -81.73698 3028 ft 266 kts 253°
2026-05-04 03:22 30.29555 -81.75740 2862 ft 264 kts 253°
2026-05-04 03:23 30.29034 -81.77771 2410 ft 264 kts 253°
2026-05-04 03:23 30.28529 -81.79798 2247 ft 252 kts 253°
2026-05-04 03:23 30.28070 -81.81679 2133 ft 241 kts 253°
2026-05-04 03:23 30.27659 -81.83384 2035 ft 231 kts 253°
2026-05-04 03:24 30.27385 -81.85125 2022 ft 222 kts 271°
2026-05-04 03:24 30.27747 -81.86843 2025 ft 219 kts 299°
2026-05-04 03:24 30.28691 -81.88125 2014 ft 205 kts 326°
2026-05-04 03:24 30.29957 -81.88790 2016 ft 198 kts 352°
2026-05-04 03:25 30.31259 -81.88868 2024 ft 194 kts
2026-05-04 03:25 30.32610 -81.88855 2021 ft 194 kts
2026-05-04 03:25 30.33963 -81.88846 2020 ft 194 kts
2026-05-04 03:25 30.35321 -81.88842 2020 ft 194 kts
2026-05-04 03:26 30.36676 -81.88838 2020 ft 195 kts
2026-05-04 03:26 30.38030 -81.88833 2019 ft 195 kts
2026-05-04 03:26 30.39386 -81.88825 2019 ft 195 kts
2026-05-04 03:26 30.40723 -81.88817 2021 ft 195 kts
2026-05-04 03:27 30.42069 -81.88714 2015 ft 192 kts 17°
2026-05-04 03:27 30.43281 -81.88113 2018 ft 189 kts 38°
2026-05-04 03:27 30.44228 -81.87065 2019 ft 185 kts 57°
2026-05-04 03:27 30.44793 -81.85743 2023 ft 183 kts 73°
2026-05-04 03:28 30.45213 -81.84351 2024 ft 183 kts 73°
2026-05-04 03:28 30.45640 -81.82959 2027 ft 182 kts 72°
2026-05-04 03:28 30.46051 -81.81632 2009 ft 168 kts 72°
2026-05-04 03:28 30.46425 -81.80423 1996 ft 154 kts 73°
2026-05-04 03:29 30.46773 -81.79292 1919 ft 146 kts 73°
2026-05-04 03:29 30.47120 -81.78160 1620 ft 144 kts 73°
2026-05-04 03:29 30.47439 -81.77122 1380 ft 133 kts 73°
2026-05-04 03:29 30.47741 -81.76139 1182 ft 127 kts 73°
2026-05-04 03:30 30.48035 -81.75177 1013 ft 126 kts 73°
2026-05-04 03:30 30.48329 -81.74221 823 ft 127 kts 72°
2026-05-04 03:30 30.48627 -81.73255 686 ft 128 kts 71°
2026-05-04 03:30 30.48927 -81.72275 526 ft 129 kts 72°
2026-05-04 03:31 30.49228 -81.71290 307 ft 130 kts 71°
2026-05-04 03:31 30.49531 -81.70300 124 ft 130 kts 70°
2026-05-04 03:31 30.49824 -81.69344 43 ft 114 kts 70°
2026-05-04 03:31 30.50012 -81.68710 37 ft 35 kts 74°
2026-05-04 03:32 30.50016 -81.68515 39 ft 22 kts 114°
2026-05-04 03:32 30.49888 -81.68446 36 ft 22 kts 189°
2026-05-04 03:32 30.49741 -81.68477 36 ft 20 kts 190°
2026-05-04 03:32 30.49606 -81.68505 37 ft 20 kts 190°
2026-05-04 03:33 30.49504 -81.68598 38 ft 20 kts 231°
2026-05-04 03:33 30.49427 -81.68704 37 ft 13 kts 214°
2026-05-04 03:33 30.49346 -81.68696 39 ft 10 kts 144°
2026-05-04 03:33 30.49328 -81.68628 39 ft 6 kts 103°
2026-05-04 03:34 30.49324 -81.68606 39 ft 1 kts 104°
2026-05-04 03:34 30.49323 -81.68605 39 ft 0 kts 104°